IRIDIUM 33 DEB, 35618

Orbit data source: Space-Track

IRIDIUM 33 DEB, 35618 is space debris in LEO originally from a launch on Sun, 14 Sep 1997 UTC launched from the Tyuratam Missile And Space Complex (TTMTR). The debris from Iridium 33, an American commercial communications satellite, has been tracked extensively since its accidental collision with the defunct Russian satellite Cosmos 2251 in 2009. This event, occurring at high speed in low Earth orbit (LEO), generated thousands of pieces of space debris, significantly increasing the risk of further collisions. The Iridium 33 debris cloud has impacted space traffic management and orbital debris mitigation strategies, making it a subject of ongoing study in space situational awareness.

Loading next visibility...
Identifier
35618, 1997-051QQ
Orbit
LEO
Country
Flag of USUS
Related business
Manufacturer
Unknown
Mission
Spacecraft
Bus & Motor
Unknown
Mass
Unknown
Launch date (UTC)
1997-09-14 (29 years ago)
Launch vehicle
Unknown
Launch site
Tyuratam Missile And Space Complex (TTMTR)
Object type
Payload
Rocket body
Debris
Shape & HBR
Unknown shape, 0.1 m
Radar Cross Section
Small (<0.1 m²)

Expand to show TLE details & history
Last TLE update: 2 days ago

TLE from 2 days ago
0 IRIDIUM 33 DEB
1 35618U 97051QQ  26103.27769641  .00000951  00000-0  22513-3 0  9990
2 35618  86.3354 300.3419 0027339 333.7153  26.2663 14.52847621671585
Epoch: 2026-04-13T06:39Z
TLE epoch observation values (Epoch: 2026-04-13T06:39:52.969Z)
Latitude
-0.00013°
Longitude
-1.09941°
Altitude
702.053 km
Speed
7.514 km/s
True Right ascension
20h 01m 22s
True Declination
0° 00' 00"
Sunlit
Object was in daylight at epoch
Visualization orbit readout
Latitude
Unknown
Longitude
Unknown
Altitude
Unknown
Speed
Unknown
Apparent Right ascension
Unknown
Apparent Declination
Unknown
Sunlit
N/A
Visualization observer readout
Local Sidereal Time
20:20:49
Azimuth
Unknown
Elevation
Unknown
Doppler factor
Unknown
Orbital elements
Apogee altitude
732.69 km
Perigee altitude
693.915 km
Semi-major axis
7,091.439 km
Eccentricity
0.00273
Inclination
86.3354°
RAAN
300.3419°
Arg. of periapsis
333.7153°
True anomaly
26.40537°
Mean anomaly
26.2663°
Eccentric anomaly
26.33579°
Mean motion
3.63447 °/min
Orbital period
99.05 mins
BSTAR
0.00022513
Loading maneuver chart data...
Computing Atmospheric mass density...

Documentation

Showing up to 5 results
|